Regional Weather Roundup
Issued by NWS

Home | Current Version | Previous Version | Graphics & Text | Print | Product List | Glossary On
Versions: 1 2 3 4 5 6 7 8 9 10 11 12 13 14 15 16 17 18 19 20 21 22 23 24 25 26 27 28 29 30 31 32 33 34 35 36 37 38 39 40 41 42 43 44 45 46 47 48 49 50
000
ASUS43 KMPX 030301
RWRMN
WEATHER ROUNDUP FOR MINNESOTA
NATIONAL WEATHER SERVICE TWIN CITIES/CHANHASSEN MN
1000 PM CDT SAT MAY 02 2015


NOTE: "FAIR" INDICATES FEW OR NO CLOUDS BELOW 12,000 FEET WITH NO
SIGNIFICANT WEATHER AND/OR OBSTRUCTIONS TO VISIBILITY. N/A MEANS
CURRENT SKY AND/OR WEATHER CONDITIONS ARE NOT AVAILABLE.

MNZ060>063-068>070-030400-
   Twin Cities Metro

CITY           SKY/WX    TMP DP  RH WIND       PRES   REMARKS
TWIN CITIES    PTCLDY    72  49  44 S10       29.77R
ST PAUL        PTCLDY    67  48  50 S7        29.77R
CRYSTAL        PTCLDY    71  47  42 S7        29.74R
BLAINE         PTCLDY    73  46  38 S8        29.75S
LAKEVILLE      CLEAR     66  48  52 S6        29.78R
EDEN PRAIRIE   PTCLDY    69  48  47 S8        29.76R
SOUTH ST PAUL  PTCLDY    70  48  45 S6        29.77R
LAKE ELMO      FAIR      68  48  49 S8        29.79R
$$
MNZ001>005-007-008-013>017-022>024-027-028-030400-
   Northwest Minnesota

CITY           SKY/WX    TMP DP  RH WIND       PRES   REMARKS
BEMIDJI        CLOUDY    62  46  55 SE7       29.66F
HALLOCK        PTCLDY    66  41  39 W7        29.60R
ROSEAU         LGT RAIN  66  45  45 W3        29.61R
WARROAD        CLOUDY    61  45  55 S6        29.62R
THIEF RVR FALL MOCLDY    64  45  48 SE21G26   29.60R
CROOKSTON      PTCLDY    63  46  55 SE14      29.59S
MOORHEAD       PTCLDY    63  52  67 SE14      29.61R
PARK RAPIDS    CLOUDY    57  52  83 SE10      29.70F
MAHNOMEN       FAIR      62  48  61 S15G22    29.63S
$$
MNZ006-009>011-018-025>026-030400-
   North Central Minnesota

CITY           SKY/WX    TMP DP  RH WIND       PRES   REMARKS
BAUDETTE       CLOUDY    67  39  35 SW10      29.61R
FLAG ISLAND    CLOUDY    59  48  67 N9        29.62R
INTL FALLS     CLOUDY    70  35  27 SW10      29.65R
WASKISH        CLOUDY    70  43  37 S9        29.64R
BIG FORK       CLOUDY    70  36  28 S9        29.68S
LONGVILLE      LGT RAIN  68  39  34 SW8G22    29.74R
GRAND RAPIDS   CLOUDY    66  41  39 S10       29.71F
CRANE LAKE     PTCLDY    64  34  32 S5        29.70S
COOK           MOCLDY    68  36  30 S7        29.71S
WALKER         DRIZZLE   64  45  51 S15G33    29.66F
$$
MNZ012-019>021-037-030400-
   Northeast Minnesota

CITY           SKY/WX    TMP DP  RH WIND       PRES   REMARKS
DULUTH         FAIR      58  42  55 SE3       29.76S
ELY            PTCLDY    63  36  36 S5        29.74S
HIBBING        MOCLDY    64  36  35 S3        29.72S
EVELETH        PTCLDY    59  34  38 S5        29.74F
DULUTH HARBOR  MOCLDY    45  39  81 CALM      29.78R
TWO HARBORS    MOCLDY    54  45  71 CALM      29.75S
SILVER BAY     MOCLDY    48  43  81 CALM      29.75S
GRAND MARAIS     N/A     42  39  89 CALM      29.77S
G MARAIS ARPRT MOCLDY    48  39  71 CALM      29.80S
$$
MNZ029>031-032-039>041-046>048-054>057-064-030400-
   West Central Minnesota

CITY           SKY/WX    TMP DP  RH WIND       PRES   REMARKS
FERGUS FALLS   CLOUDY    64  52  63 SE13      29.67F
WHEATON        MOCLDY    66  48  52 E13       29.67S
MORRIS         MOCLDY    66  52  59 NE20G36   29.72R
ALEXANDRIA     LGT RAIN  61  53  75 N18G28    29.79R
ELBOW LAKE     FAIR      61  54  77 NE17G23   29.67F
WADENA         TSTM      57  52  82 W6        29.79R
GLENWOOD       MOCLDY    66  45  45 W5        29.72R
APPLETON       PTCLDY    73  41  31 S10       29.67S
BENSON         PTCLDY    72  39  30 SW9       29.69R
ORTONVILLE     PTCLDY    70  43  37 S8        29.66R
MADISON        PTCLDY    70  41  35 S13       29.68S
WILLMAR        FAIR      72  46  40 S6        29.72S
$$
MNZ033>034-036-042>043-049>051-058-059-030400-
   Central Minnesota

CITY           SKY/WX    TMP DP  RH WIND       PRES   REMARKS
ST CLOUD       MOCLDY    66  45  46 SE10      29.72R
SAUK CENTRE    FAIR      66  41  40 CALM      29.71R
PAYNESVILLE    PTCLDY    69  43  39 SE12      29.72R
AITKIN         MOCLDY    61  43  51 SE6       29.71F
PINE RIVER     DRIZZLE   68  46  45 NW13G22   29.79R
BRAINERD       CLOUDY    64  43  46 CALM      29.72S
STAPLES        DRIZZLE   61  48  63 NW16G25   29.75R
LONG PRAIRIE   MOCLDY    68  39  34 SE5       29.72R
LITTLE FALLS   CLOUDY    68  41  37 SE6       29.72R
LITCHFIELD     PTCLDY    72  48  43 S6        29.73S
BUFFALO        PTCLDY    71  47  42 S5        29.74S
MAPLE LAKE     PTCLDY    70  50  49 S6        29.74S
$$
MNZ037-044-045-052-053-030400-
   East Central Minnesota

CITY           SKY/WX    TMP DP  RH WIND       PRES   REMARKS
PRINCETON      PTCLDY    66  45  45 SE5       29.74S
MORA           PTCLDY    55  43  62 CALM      29.76S
CAMBRIDGE      PTCLDY    68  48  49 SE3       29.73S
RUSH CITY      PTCLDY    61  44  52 SE5       29.75S
MOOSE LAKE     MOCLDY    59  41  51 CALM      29.73F
HINCKLEY       FAIR      59  43  55 CALM      29.75S
CLOQUET        MOCLDY    55  43  62 CALM      29.76S
MCGREGOR       MOCLDY    57  43  58 SE5       29.74F
$$
MNZ071>073-080-081-089-090-097-098-030400-
   Southwest Minnesota

CITY           SKY/WX    TMP DP  RH WIND       PRES   REMARKS
MONTEVIDEO     CLEAR     72  45  37 SW12      29.70S
GRANITE FALLS  CLEAR     68  45  44 S9        29.73R
CANBY          CLEAR     70  44  39 S9        29.70F
MARSHALL       CLEAR     70  48  46 S14       29.73R
REDWOOD FALLS  CLEAR     70  50  49 S16       29.74R
OLIVIA         CLEAR     70  45  40 S12       29.73R
PIPESTONE      CLEAR     66  52  59 S9        29.74S
WORTHINGTON    CLEAR     64  50  59 S12       29.78R
JACKSON        CLEAR     64  52  63 S12       29.80R
TRACY          CLEAR     70  52  52 S9        29.75R
SLAYTON        CLEAR     63  50  61 CALM      29.77R
$$
MNZ065>067-074>077-082>085-091>093-030400-
   South Central Minnesota

CITY           SKY/WX    TMP DP  RH WIND       PRES   REMARKS
MANKATO        CLEAR     68  48  49 S15       29.79R
NEW ULM        CLEAR     68  50  52 S14       29.76R
ST JAMES       CLEAR     68  54  60 S14       29.79R
FAIRMONT       CLEAR     64  48  55 S16       29.80R
GLENCOE        CLEAR     72  53  51 S10G17    29.75R
FARIBAULT      CLEAR     70  48  46 S10G16    29.81R
OWATONNA       CLEAR     68  50  52 S17       29.82R
WASECA         CLEAR     64  48  55 S15G23    29.83R
ALBERT LEA     FAIR      64  52  63 S13G20    29.84R
$$
MNZ078>079-086>088-094>096-030400-
   Southeast Minnesota

CITY           SKY/WX    TMP DP  RH WIND       PRES   REMARKS
ROCHESTER      CLEAR     63  49  60 S13       29.86R
RED WING       CLEAR     70  46  43 S13       29.79R
STANTON        CLEAR     69  47  45 S8        29.78R
DODGE CENTER   CLEAR     64  50  59 S15       29.84R
WINONA         CLEAR     70  50  49 SW13      29.84R
AUSTIN         CLEAR     63  50  63 S15       29.86R
PRESTON        CLEAR     61  49  64 S12       29.88R
$$
ABBREVIATIONS USED IN REMARKS
   TC - TEMPERATURES IN CELSIUS
  WCI - WIND CHILL INDEX
   HX - HEAT INDEX
  VSB - VISIBILITY
$$


USA.gov is the U.S. government's official web portal to all federal, state and local government web resources and services.